EW6749 Weather Reports


Display with metric or nautical units.
time (UTC)temp
F
wind
direction
speed
MPH
gust
MPH
rain 1hr
in
rain 24hr
in
rain mn
in
humidity
%
barometer
mb
20260505014017 60 336 1.0 4.0 0.00 0.00 0.00 63 1014.8
20260505013017 60 325 1.0 6.0 0.00 0.00 0.00 63 1014.8
20260505012018 61 102 1.0 4.0 0.00 0.00 0.00 64 1014.9
20260505011017 61 73 1.0 4.0 0.00 0.00 0.00 63 1014.9
20260505010018 62 268 1.0 5.0 0.00 0.00 0.00 62 1015.0
20260505005018 62 289 2.0 4.0 0.00 0.00 0.00 60 1015.1
20260505004019 62 299 1.0 3.0 0.00 0.00 0.00 61 1015.1
20260505003019 61 296 1.0 4.0 0.00 0.00 0.00 63 1015.2
20260505002018 60 293 2.0 4.0 0.00 0.00 0.00 64 1015.2
20260505001016 60 283 3.0 7.0 0.00 0.00 0.00 64 1015.2
20260505000016 59 301 2.0 7.0 0.00 0.00 0.00 65 1015.2
20260504235017 59 288 3.0 7.0 0.00 0.00 0.00 67 1015.1
20260504234016 58 314 2.0 4.0 0.00 0.00 0.00 69 1015.2
20260504233016 58 304 3.0 9.0 0.00 0.00 0.00 71 1015.2
20260504232017 59 307 2.0 5.0 0.00 0.00 0.00 71 1015.1
20260504231017 60 301 3.0 8.0 0.00 0.00 0.00 67 1015.1
20260504230016 61 305 2.0 7.0 0.00 0.00 0.00 66 1015.2
20260504225037 62 297 3.0 6.0 0.00 0.00 0.00 64 1015.1
20260504224018 62 312 2.0 7.0 0.00 0.00 0.00 62 1015.1
20260504223017 63 307 2.0 8.0 0.00 0.00 0.00 60 1015.2
20260504222018 64 296 2.0 6.0 0.00 0.00 0.00 59 1015.1
20260504221017 63 299 1.0 5.0 0.00 0.00 0.00 59 1015.2
20260504220018 64 304 3.0 7.0 0.00 0.00 0.00 59 1015.4
20260504215015 63 322 2.0 7.0 0.00 0.00 0.00 59 1015.5
20260504214016 63 317 3.0 9.0 0.00 0.00 0.00 60 1015.6
20260504213056 62 306 3.0 8.0 0.00 0.00 0.00 63 1015.6
20260504212016 62 324 3.0 7.0 0.00 0.00 0.00 62 1015.6
20260504211016 61 301 3.0 6.0 0.00 0.00 0.00 63 1015.6
20260504210016 61 318 4.0 7.0 0.00 0.00 0.00 63 1015.7
20260504205017 62 321 2.0 7.0 0.00 0.00 0.00 63 1015.7
20260504204016 62 341 1.0 9.0 0.00 0.00 0.00 62 1015.7
20260504203016 62 317 3.0 6.0 0.00 0.00 0.00 61 1015.7
20260504202017 61 311 2.0 5.0 0.00 0.00 0.00 62 1015.6
20260504201018 62 298 2.0 6.0 0.00 0.00 0.00 61 1015.7
20260504200017 62 284 2.0 5.0 0.00 0.00 0.00 61 1015.8
20260504195017 62 293 2.0 5.0 0.00 0.00 0.00 62 1015.9
20260504194018 62 304 2.0 6.0 0.00 0.00 0.00 60 1015.8
20260504193016 60 318 1.0 4.0 0.00 0.00 0.00 65 1015.8
20260504192017 59 293 3.0 8.0 0.00 0.00 0.00 66 1015.9
20260504191016 60 286 3.0 7.0 0.00 0.00 0.00 65 1015.9
20260504190016 61 300 2.0 4.0 0.00 0.00 0.00 62 1015.9
20260504185015 63 286 3.0 7.0 0.00 0.00 0.00 59 1015.8
20260504184015 63 287 0.0 2.0 0.00 0.00 0.00 57 1015.7
20260504183015 63 84 0.0 4.0 0.00 0.00 0.00 58 1015.7
20260504182015 64 355 0.0 2.0 0.00 0.00 0.00 56 1015.8
20260504181016 64 86 0.0 3.0 0.00 0.00 0.00 56 1015.8
20260504180037 64 64 1.0 3.0 0.00 0.00 0.00 56 1015.6
20260504175016 63 98 1.0 6.0 0.00 0.00 0.00 56 1015.5
20260504174016 62 330 2.0 5.0 0.00 0.00 0.00 59 1015.5
20260504173017 62 46 1.0 3.0 0.00 0.00 0.00 59 1015.5
20260504172018 61 82 0.0 1.0 0.00 0.00 0.00 60 1015.5
20260504171038 60 329 1.0 4.0 0.00 0.00 0.00 61 1015.4
20260504151017 57 300 1.0 3.0 0.00 0.00 0.00 69 1015.5
20260504141057 51 289 2.0 3.0 0.00 0.00 0.00 80 1015.2
20260504081036 49 282 1.0 3.0 0.00 0.00 0.00 86 1015.2
20260504050016 53 300 1.0 5.0 0.00 0.00 0.00 75 1014.8
20260504045037 53 277 0.0 2.0 0.00 0.00 0.00 74 1014.7
20260504044036 53 279 1.0 5.0 0.00 0.00 0.00 73 1014.5
20260504043016 54 304 1.0 3.0 0.00 0.00 0.00 71 1014.5
20260504042017 54 345 1.0 3.0 0.00 0.00 0.00 71 1014.3
20260504041017 54 349 2.0 6.0 0.00 0.00 0.00 70 1014.2
20260504040017 54 339 3.0 8.0 0.00 0.00 0.00 69 1014.1
20260504035018 54 328 3.0 11.0 0.00 0.00 0.00 71 1013.8
20260504034018 55 334 3.0 9.0 0.00 0.00 0.00 71 1013.8
20260504033018 55 352 2.0 7.0 0.00 0.00 0.00 70 1013.7
20260504032017 55 332 4.0 9.0 0.00 0.00 0.00 68 1013.4
20260504031018 56 330 4.0 9.0 0.00 0.00 0.00 67 1013.3
20260504030018 56 318 3.0 7.0 0.00 0.00 0.00 66 1013.3
20260504025018 56 351 2.0 6.0 0.00 0.00 0.00 65 1013.3
20260504024017 57 322 3.0 8.0 0.00 0.00 0.00 63 1013.1
20260504023015 58 327 2.0 6.0 0.00 0.00 0.00 63 1013.1
20260504022016 59 332 2.0 6.0 0.00 0.00 0.00 62 1013.0
20260504021016 60 327 2.0 5.0 0.00 0.00 0.00 61 1013.0
20260504020037 61 331 2.0 6.0 0.00 0.00 0.00 59 1013.0
20260504015016 62 316 1.0 3.0 0.00 0.00 0.00 58 1013.0